Weather History for Philadelphia, PA

Change the Weather History Date:

Thursday, December 5, 2013

  Actual Average Record
Temperature  
Mean Temperature 55 °F 41 °F  
Max Temperature 60 °F 48 °F 71 °F (2001)
Min Temperature 49 °F 33 °F 13 °F (1886)
Degree Days  
Heating Degree Days 10 24  
Month to date heating degree days 91 118  
Since 1 July heating degree days 897 934  
Cooling Degree Days 0 0  
Month to date cooling degree days 0 0  
Year to date cooling degree days 1411 1301  
Growing Degree Days 4 (Base 50)    
Moisture  
Dew Point 51 °F    
Average Humidity 88    
Maximum Humidity 96    
Minimum Humidity 80    
Precipitation  
Precipitation T in 0.12 in 1.52 in (1993)
Month to date precipitation T 0.62  
Year to date precipitation 50.68 38.59  
Snow  
Snow 0.00 in 0.10 in 7.00 in (2002)
Month to date snowfall 0.0 0.3  
Since 1 July snowfall T 0.6  
Snow Depth 0.00 in    
Sea Level Pressure  
Sea Level Pressure 30.04 in    
Wind  
Wind Speed 4 mph (South)    
Max Wind Speed 14 mph    
Max Gust Speed 17 mph    
Visibility 4 miles    
Events Fog , Rain    
T = Trace of Precipitation, MM = Missing Value Source: NWS Daily Summary

Daily Weather History Graph

Daily Weather History Graph

Search for Another Location

Airport:

Trip Planner

Search our weather history database for the weather conditions in past years. The results will help you decide how hot, cold, wet, or windy it might be!

Date:

Astronomy

Dec. 05, 2013 Rise Set
Actual Time 7:07 AM EST 4:35 PM EST
Civil Twilight 6:37 AM EST 5:06 PM EST
Nautical Twilight 6:03 AM EST 5:39 PM EST
Astronomical Twilight 5:30 AM EST 6:12 PM EST
Moon 9:25 AM EST (12/5) 7:53 PM EST (12/5)
Length of Visible Light 10h 28m
Length of Day
9h 28m
Waxing Crescent, 10% of the Moon is Illuminated
Dec 5
Waxing Crescent
Dec 9
First Quarter
Dec 17
Full
Dec 25
Last Quarter
Jan 1
New

Hourly Weather History & Observations

Time (EST) Temp. Dew Point Humidity Pressure Visibility Wind Dir Wind Speed Gust Speed Precip Events Conditions
12:08 AM 50.0 °F 44.6 °F 82% 30.12 in 5.0 mi Calm Calm - 0.00 in Rain Light Rain
12:21 AM 50.0 °F 44.6 °F 82% 30.12 in 4.0 mi Calm Calm - 0.00 in Rain Light Rain
12:54 AM 50.0 °F 46.0 °F 86% 30.11 in 3.0 mi Calm Calm - 0.00 in   Overcast
1:08 AM 50.0 °F 46.4 °F 87% 30.11 in 3.0 mi Calm Calm - N/A   Overcast
1:54 AM 50.0 °F 46.9 °F 89% 30.11 in 3.0 mi Calm Calm - N/A   Overcast
2:45 AM 48.2 °F 46.4 °F 93% 30.11 in 2.0 mi East 3.5 mph - N/A   Overcast
2:48 AM 48.2 °F 46.4 °F 93% 30.11 in 1.2 mi ENE 3.5 mph - N/A   Overcast
2:54 AM 48.9 °F 46.0 °F 90% 30.11 in 1.2 mi East 3.5 mph - N/A   Overcast
3:28 AM 50.0 °F 46.4 °F 87% 30.09 in 0.8 mi East 5.8 mph - N/A   Overcast
3:54 AM 50.0 °F 46.9 °F 89% 30.09 in 0.2 mi Calm Calm - N/A Fog Fog
4:54 AM 50.0 °F 48.0 °F 93% 30.09 in 0.2 mi Calm Calm - N/A Fog Fog
4:58 AM 50.0 °F 48.2 °F 94% 30.09 in 0.2 mi Calm Calm - N/A Fog Fog
5:11 AM 50.0 °F 48.2 °F 94% 30.08 in 0.2 mi East 5.8 mph - N/A Fog Fog
5:52 AM 48.2 °F 46.4 °F 93% 30.07 in 0.1 mi East 5.8 mph - N/A Fog Fog
5:54 AM 48.9 °F 46.9 °F 93% 30.07 in 0.1 mi East 6.9 mph - N/A Fog Fog
6:54 AM 50.0 °F 48.0 °F 93% 30.08 in 0.1 mi Calm Calm - N/A Fog Fog
7:02 AM 50.0 °F 48.2 °F 94% 30.08 in 0.1 mi Calm Calm - N/A Fog Fog
7:15 AM 50.0 °F 48.2 °F 94% 30.08 in 0.2 mi Calm Calm - N/A Fog Fog
7:28 AM 50.0 °F 48.2 °F 94% 30.08 in 0.2 mi Calm Calm - N/A Fog Fog
7:54 AM 51.1 °F 48.9 °F 92% 30.07 in 0.2 mi East 3.5 mph - N/A Fog Fog
8:11 AM 51.8 °F 48.2 °F 88% 30.08 in 0.8 mi ESE 3.5 mph - N/A   Mist
8:24 AM 51.8 °F 50.0 °F 94% 30.08 in 1.2 mi Calm Calm - N/A   Overcast
8:28 AM 51.8 °F 50.0 °F 94% 30.08 in 2.0 mi Calm Calm - N/A   Overcast
8:43 AM 51.8 °F 50.0 °F 94% 30.09 in 3.0 mi Calm Calm - N/A   Overcast
8:54 AM 52.0 °F 50.0 °F 93% 30.09 in 3.0 mi Calm Calm - N/A   Overcast
9:03 AM 53.6 °F 50.0 °F 88% 30.09 in 4.0 mi Calm Calm - N/A   Overcast
9:25 AM 53.6 °F 51.8 °F 94% 30.09 in 4.0 mi Calm Calm - N/A   Overcast
9:42 AM 53.6 °F 51.8 °F 94% 30.09 in 5.0 mi Calm Calm - N/A   Overcast
9:54 AM 53.1 °F 51.1 °F 93% 30.09 in 5.0 mi Calm Calm - N/A   Overcast
10:13 AM 53.6 °F 51.8 °F 94% 30.08 in 5.0 mi South 4.6 mph - N/A   Overcast
10:22 AM 55.4 °F 51.8 °F 88% 30.08 in 6.0 mi South 3.5 mph - N/A   Overcast
10:54 AM 55.9 °F 52.0 °F 87% 30.06 in 6.0 mi South 4.6 mph - N/A   Overcast
11:06 AM 57.2 °F 51.8 °F 82% 30.06 in 7.0 mi SSW 8.1 mph - N/A   Overcast
11:54 AM 55.9 °F 52.0 °F 87% 30.03 in 7.0 mi South 11.5 mph - N/A   Overcast
12:03 PM 55.4 °F 51.8 °F 88% 30.04 in 6.0 mi SSW 11.5 mph - N/A   Overcast
12:54 PM 55.9 °F 52.0 °F 87% 30.01 in 5.0 mi South 8.1 mph - N/A   Overcast
1:25 PM 57.2 °F 53.6 °F 88% 30.01 in 4.0 mi South 10.4 mph - N/A   Overcast
1:54 PM 57.0 °F 53.1 °F 87% 30.00 in 4.0 mi South 6.9 mph - N/A   Overcast
2:54 PM 57.0 °F 53.1 °F 87% 29.98 in 4.0 mi South 6.9 mph - N/A   Overcast
3:14 PM 57.2 °F 53.6 °F 88% 30.00 in 4.0 mi South 5.8 mph - N/A   Haze
3:54 PM 57.9 °F 53.1 °F 84% 30.00 in 4.0 mi South 5.8 mph - N/A   Haze
4:21 PM 57.2 °F 53.6 °F 88% 30.01 in 4.0 mi SSE 3.5 mph - N/A   Haze
4:47 PM 57.2 °F 53.6 °F 88% 30.00 in 5.0 mi SSE 3.5 mph - N/A   Haze
4:54 PM 57.9 °F 53.1 °F 84% 30.00 in 5.0 mi SE 4.6 mph - N/A   Haze
5:49 PM 59.0 °F 53.6 °F 82% 29.99 in 7.0 mi Calm Calm - N/A   Overcast
5:54 PM 57.9 °F 53.1 °F 84% 29.99 in 7.0 mi Calm Calm - N/A   Overcast
6:27 PM 59.0 °F 53.6 °F 82% 30.00 in 7.0 mi NNW 4.6 mph - N/A   Overcast
6:54 PM 59.0 °F 54.0 °F 83% 30.00 in 7.0 mi Calm Calm - N/A   Overcast
7:05 PM 57.2 °F 53.6 °F 88% 30.00 in 6.0 mi SSE 3.5 mph - N/A   Overcast
7:19 PM 59.0 °F 55.4 °F 88% 30.00 in 4.0 mi South 3.5 mph - N/A   Overcast
7:38 PM 57.2 °F 55.4 °F 94% 30.01 in 2.0 mi WSW 3.5 mph - 0.00 in   Light Drizzle
7:47 PM 57.2 °F 55.4 °F 94% 30.00 in 2.0 mi SSE 3.5 mph - 0.00 in   Light Drizzle
7:54 PM 57.9 °F 55.9 °F 93% 30.00 in 2.0 mi Calm Calm - 0.00 in   Light Drizzle
8:01 PM 57.2 °F 55.4 °F 94% 30.00 in 1.5 mi Calm Calm - 0.00 in   Overcast
8:38 PM 57.2 °F 55.4 °F 94% 29.99 in 1.5 mi South 4.6 mph - 0.00 in   Overcast
8:54 PM 59.0 °F 55.9 °F 90% 29.99 in 1.8 mi South 9.2 mph - 0.00 in   Overcast
9:04 PM 59.0 °F 55.4 °F 88% 29.99 in 4.0 mi South 8.1 mph - N/A   Overcast
9:27 PM 59.0 °F 57.2 °F 94% 29.99 in 4.0 mi SSW 8.1 mph - N/A   Overcast
9:41 PM 59.0 °F 57.2 °F 94% 29.98 in 5.0 mi South 5.8 mph - N/A   Overcast
9:54 PM 59.0 °F 55.9 °F 90% 29.97 in 5.0 mi South 5.8 mph - N/A   Overcast
10:50 PM 59.0 °F 55.4 °F 88% 29.95 in 6.0 mi South 6.9 mph - N/A   Overcast
10:54 PM 59.0 °F 55.9 °F 90% 29.96 in 6.0 mi South 8.1 mph - N/A   Overcast
11:17 PM 60.8 °F 57.2 °F 88% 29.97 in 5.0 mi South 6.9 mph - N/A   Overcast
11:24 PM 60.8 °F 57.2 °F 88% 29.97 in 5.0 mi South 8.1 mph - N/A   Overcast
11:37 PM 60.8 °F 57.2 °F 88% 29.96 in 5.0 mi South 5.8 mph - N/A   Overcast
11:54 PM 60.1 °F 57.0 °F 90% 29.95 in 4.0 mi SSW 6.9 mph - N/A   Overcast